Year,Month,Day,Hour,Minute,Value (Times are PST for temperature in C)
2014,10,10,00,00,10.90
2014,10,10,00,01,10.90
2014,10,10,00,02,10.90
2014,10,10,00,03,10.90
2014,10,10,00,04,10.90
2014,10,10,00,05,10.90
2014,10,10,00,06,10.90
2014,10,10,00,07,10.90
2014,10,10,00,08,11.00
2014,10,10,00,09,11.10
2014,10,10,00,10,11.20
2014,10,10,00,11,11.30
2014,10,10,00,12,11.40
2014,10,10,00,13,11.40
2014,10,10,00,14,11.40
2014,10,10,00,15,11.40
2014,10,10,00,16,11.50
2014,10,10,00,17,11.60
2014,10,10,00,18,11.60
2014,10,10,00,19,11.60
2014,10,10,00,20,11.60
2014,10,10,00,21,11.60
2014,10,10,00,22,11.60
2014,10,10,00,23,11.60
2014,10,10,00,24,11.60
2014,10,10,00,25,11.50
2014,10,10,00,26,11.40
2014,10,10,00,27,11.40
2014,10,10,00,28,11.40
2014,10,10,00,29,11.30
2014,10,10,00,30,11.30
2014,10,10,00,31,11.30
2014,10,10,00,32,11.20
2014,10,10,00,33,11.20
2014,10,10,00,34,11.20
2014,10,10,00,35,11.10
2014,10,10,00,36,11.10
2014,10,10,00,37,11.20
2014,10,10,00,38,11.20
2014,10,10,00,39,11.30
2014,10,10,00,40,11.40
2014,10,10,00,41,11.60
2014,10,10,00,42,11.70
2014,10,10,00,43,11.80
2014,10,10,00,44,11.80
2014,10,10,00,45,11.80
2014,10,10,00,46,11.90
2014,10,10,00,47,11.90
2014,10,10,00,48,11.90
2014,10,10,00,49,11.90
2014,10,10,00,50,11.90
2014,10,10,00,51,11.90
2014,10,10,00,52,11.90
2014,10,10,00,53,11.90
2014,10,10,00,54,11.90
2014,10,10,00,55,11.90
2014,10,10,00,56,11.90
2014,10,10,00,57,11.90
2014,10,10,00,58,11.90
2014,10,10,00,59,11.90
2014,10,10,01,00,12.00
2014,10,10,01,01,12.00
2014,10,10,01,02,12.00
2014,10,10,01,03,12.00
2014,10,10,01,04,12.00
2014,10,10,01,05,12.00
2014,10,10,01,06,12.00
2014,10,10,01,07,12.00
2014,10,10,01,08,12.00
2014,10,10,01,09,12.00
2014,10,10,01,10,12.00
2014,10,10,01,11,12.00
2014,10,10,01,12,12.00
2014,10,10,01,13,11.90
2014,10,10,01,14,11.90
2014,10,10,01,15,11.80
2014,10,10,01,16,11.80
2014,10,10,01,17,11.80
2014,10,10,01,18,11.80
2014,10,10,01,19,11.70
2014,10,10,01,20,11.70
2014,10,10,01,21,11.70
2014,10,10,01,22,11.70
2014,10,10,01,23,11.60
2014,10,10,01,24,11.60
2014,10,10,01,25,11.60
2014,10,10,01,26,11.50
2014,10,10,01,27,11.40
2014,10,10,01,28,11.40
2014,10,10,01,29,11.30
2014,10,10,01,30,11.30
2014,10,10,01,31,11.20
2014,10,10,01,32,11.20
2014,10,10,01,33,11.20
2014,10,10,01,34,11.10
2014,10,10,01,35,11.10
2014,10,10,01,36,11.10
2014,10,10,01,37,11.10
2014,10,10,01,38,11.00
2014,10,10,01,39,10.90
2014,10,10,01,40,10.90
2014,10,10,01,41,10.90
2014,10,10,01,42,10.90
2014,10,10,01,43,10.90
2014,10,10,01,44,10.90
2014,10,10,01,45,10.90
2014,10,10,01,46,10.90
2014,10,10,01,47,10.90
2014,10,10,01,48,10.90
2014,10,10,01,49,10.90
2014,10,10,01,50,10.90
2014,10,10,01,51,10.90
2014,10,10,01,52,10.90
2014,10,10,01,53,10.90
2014,10,10,01,54,10.90
2014,10,10,01,55,10.90
2014,10,10,01,56,10.90
2014,10,10,01,57,10.90
2014,10,10,01,58,10.90
2014,10,10,01,59,10.90
2014,10,10,02,00,10.90
2014,10,10,02,01,10.90
2014,10,10,02,02,10.90
2014,10,10,02,03,11.00
2014,10,10,02,04,11.10
2014,10,10,02,05,11.20
2014,10,10,02,06,11.30
2014,10,10,02,07,11.40
2014,10,10,02,08,11.40
2014,10,10,02,09,11.50
2014,10,10,02,10,11.60
2014,10,10,02,11,11.60
2014,10,10,02,12,11.80
2014,10,10,02,13,11.80
2014,10,10,02,14,12.00
2014,10,10,02,15,12.10
2014,10,10,02,16,12.10
2014,10,10,02,17,12.10
2014,10,10,02,18,12.10
2014,10,10,02,19,12.20
2014,10,10,02,20,12.20
2014,10,10,02,21,12.30
2014,10,10,02,22,12.30
2014,10,10,02,23,12.30
2014,10,10,02,24,12.30
2014,10,10,02,25,12.30
2014,10,10,02,26,12.30
2014,10,10,02,27,12.30
2014,10,10,02,28,12.30
2014,10,10,02,29,12.30
2014,10,10,02,30,12.30
2014,10,10,02,31,12.20
2014,10,10,02,32,12.10
2014,10,10,02,33,12.10
2014,10,10,02,34,12.00
2014,10,10,02,35,12.00
2014,10,10,02,36,12.00
2014,10,10,02,37,11.90
2014,10,10,02,38,11.80
2014,10,10,02,39,11.70
2014,10,10,02,40,11.50
2014,10,10,02,41,11.40
2014,10,10,02,42,11.40
2014,10,10,02,43,11.30
2014,10,10,02,44,11.30
2014,10,10,02,45,11.30
2014,10,10,02,46,11.30
2014,10,10,02,47,11.30
2014,10,10,02,48,11.30
2014,10,10,02,49,11.30
2014,10,10,02,50,11.30
2014,10,10,02,51,11.30
2014,10,10,02,52,11.30
2014,10,10,02,53,11.20
2014,10,10,02,54,11.20
2014,10,10,02,55,11.20
2014,10,10,02,56,11.10
2014,10,10,02,57,11.10
2014,10,10,02,58,11.10
2014,10,10,02,59,11.10
2014,10,10,03,00,11.00
2014,10,10,03,01,10.90
2014,10,10,03,02,10.90
2014,10,10,03,03,10.90
2014,10,10,03,04,10.90
2014,10,10,03,05,10.90
2014,10,10,03,06,10.90
2014,10,10,03,07,10.90
2014,10,10,03,08,11.00
2014,10,10,03,09,11.10
2014,10,10,03,10,11.10
2014,10,10,03,11,11.10
2014,10,10,03,12,11.00
2014,10,10,03,13,10.90
2014,10,10,03,14,10.90
2014,10,10,03,15,10.90
2014,10,10,03,16,10.80
2014,10,10,03,17,10.80
2014,10,10,03,18,10.80
2014,10,10,03,19,10.80
2014,10,10,03,20,10.80
2014,10,10,03,21,10.80
2014,10,10,03,22,10.80
2014,10,10,03,23,10.90
2014,10,10,03,24,10.90
2014,10,10,03,25,10.90
2014,10,10,03,26,10.90
2014,10,10,03,27,10.90
2014,10,10,03,28,10.90
2014,10,10,03,29,10.90
2014,10,10,03,30,10.90
2014,10,10,03,31,10.90
2014,10,10,03,32,10.80
2014,10,10,03,33,10.80
2014,10,10,03,34,10.80
2014,10,10,03,35,10.70
2014,10,10,03,36,10.70
2014,10,10,03,37,10.70
2014,10,10,03,38,10.70
2014,10,10,03,39,10.60
2014,10,10,03,40,10.60
2014,10,10,03,41,10.60
2014,10,10,03,42,10.60
2014,10,10,03,43,10.60
2014,10,10,03,44,10.60
2014,10,10,03,45,10.60
2014,10,10,03,46,10.60
2014,10,10,03,47,10.60
2014,10,10,03,48,10.50
2014,10,10,03,49,10.40
2014,10,10,03,50,10.40
2014,10,10,03,51,10.40
2014,10,10,03,52,10.30
2014,10,10,03,53,10.30
2014,10,10,03,54,10.20
2014,10,10,03,55,10.20
2014,10,10,03,56,10.20
2014,10,10,03,57,10.10
2014,10,10,03,58,10.10
2014,10,10,03,59,10.10
2014,10,10,04,00,10.10
2014,10,10,04,01,10.10
2014,10,10,04,02,10.10
2014,10,10,04,03,10.10
2014,10,10,04,04,10.10
2014,10,10,04,05,10.10
2014,10,10,04,06,10.10
2014,10,10,04,07,10.10
2014,10,10,04,08,10.10
2014,10,10,04,09,10.10
2014,10,10,04,10,10.10
2014,10,10,04,11,10.10
2014,10,10,04,12,10.10
2014,10,10,04,13,10.00
2014,10,10,04,14,9.90
2014,10,10,04,15,9.90
2014,10,10,04,16,9.90
2014,10,10,04,17,9.90
2014,10,10,04,18,10.00
2014,10,10,04,19,9.90
2014,10,10,04,20,9.90
2014,10,10,04,21,9.90
2014,10,10,04,22,9.90
2014,10,10,04,23,9.90
2014,10,10,04,24,9.90
2014,10,10,04,25,9.90
2014,10,10,04,26,9.90
2014,10,10,04,27,9.90
2014,10,10,04,28,9.90
2014,10,10,04,29,9.80
2014,10,10,04,30,9.90
2014,10,10,04,31,9.90
2014,10,10,04,32,9.90
2014,10,10,04,33,9.90
2014,10,10,04,34,9.90
2014,10,10,04,35,9.90
2014,10,10,04,36,9.90
2014,10,10,04,37,9.90
2014,10,10,04,38,9.90
2014,10,10,04,39,9.90
2014,10,10,04,40,9.90
2014,10,10,04,41,9.90
2014,10,10,04,42,9.90
2014,10,10,04,43,9.90
2014,10,10,04,44,9.90
2014,10,10,04,45,9.80
2014,10,10,04,46,9.80
2014,10,10,04,47,9.70
2014,10,10,04,48,9.70
2014,10,10,04,49,9.70
2014,10,10,04,50,9.60
2014,10,10,04,51,9.60
2014,10,10,04,52,9.60
2014,10,10,04,53,9.60
2014,10,10,04,54,9.70
2014,10,10,04,55,9.70
2014,10,10,04,56,9.70
2014,10,10,04,57,9.60
2014,10,10,04,58,9.60
2014,10,10,04,59,9.70
2014,10,10,05,00,9.70
2014,10,10,05,01,9.70
2014,10,10,05,02,9.70
2014,10,10,05,03,9.70
2014,10,10,05,04,9.70
2014,10,10,05,05,9.80
2014,10,10,05,06,9.80
2014,10,10,05,07,9.70
2014,10,10,05,08,9.70
2014,10,10,05,09,9.70
2014,10,10,05,10,9.70
2014,10,10,05,11,9.70
2014,10,10,05,12,9.70
2014,10,10,05,13,9.80
2014,10,10,05,14,9.80
2014,10,10,05,15,9.90
2014,10,10,05,16,9.90
2014,10,10,05,17,9.90
2014,10,10,05,18,9.90
2014,10,10,05,19,9.90
2014,10,10,05,20,9.90
2014,10,10,05,21,9.90
2014,10,10,05,22,9.90
2014,10,10,05,23,9.90
2014,10,10,05,24,9.90
2014,10,10,05,25,9.90
2014,10,10,05,26,9.90
2014,10,10,05,27,9.80
2014,10,10,05,28,9.70
2014,10,10,05,29,9.70
2014,10,10,05,30,9.60
2014,10,10,05,31,9.50
2014,10,10,05,32,9.50
2014,10,10,05,33,9.40
2014,10,10,05,34,9.40
2014,10,10,05,35,9.40
2014,10,10,05,36,9.30
2014,10,10,05,37,9.30
2014,10,10,05,38,9.30
2014,10,10,05,39,9.30
2014,10,10,05,40,9.30
2014,10,10,05,41,9.20
2014,10,10,05,42,9.20
2014,10,10,05,43,9.20
2014,10,10,05,44,9.20
2014,10,10,05,45,9.20
2014,10,10,05,46,9.20
2014,10,10,05,47,9.30
2014,10,10,05,48,9.30
2014,10,10,05,49,9.40
2014,10,10,05,50,9.40
2014,10,10,05,51,9.50
2014,10,10,05,52,9.60
2014,10,10,05,53,9.70
2014,10,10,05,54,9.80
2014,10,10,05,55,9.90
2014,10,10,05,56,9.90
2014,10,10,05,57,10.00
2014,10,10,05,58,10.10
2014,10,10,05,59,10.10
2014,10,10,06,00,10.10
2014,10,10,06,01,10.20
2014,10,10,06,02,10.30
2014,10,10,06,03,10.40
2014,10,10,06,04,10.40
2014,10,10,06,05,10.40
2014,10,10,06,06,10.50
2014,10,10,06,07,10.60
2014,10,10,06,08,10.60
2014,10,10,06,09,10.60
2014,10,10,06,10,10.60
2014,10,10,06,11,10.60
2014,10,10,06,12,10.60
2014,10,10,06,13,10.60
2014,10,10,06,14,10.60
2014,10,10,06,15,10.60
2014,10,10,06,16,10.60
2014,10,10,06,17,10.70
2014,10,10,06,18,10.70
2014,10,10,06,19,10.80
2014,10,10,06,20,10.80
2014,10,10,06,21,10.80
2014,10,10,06,22,10.90
2014,10,10,06,23,10.90
2014,10,10,06,24,10.90
2014,10,10,06,25,10.90
2014,10,10,06,26,11.00
2014,10,10,06,27,11.10
2014,10,10,06,28,11.10
2014,10,10,06,29,11.10
2014,10,10,06,30,11.10
2014,10,10,06,31,11.10
2014,10,10,06,32,11.10
2014,10,10,06,33,11.10
2014,10,10,06,34,11.10
2014,10,10,06,35,11.10
2014,10,10,06,36,11.10
2014,10,10,06,37,11.10
2014,10,10,06,38,11.10
2014,10,10,06,39,11.10
2014,10,10,06,40,11.10
2014,10,10,06,41,11.20
2014,10,10,06,42,11.20
2014,10,10,06,43,11.20
2014,10,10,06,44,11.20
2014,10,10,06,45,11.20
2014,10,10,06,46,11.30
2014,10,10,06,47,11.30
2014,10,10,06,48,11.30
2014,10,10,06,49,11.30
2014,10,10,06,50,11.30
2014,10,10,06,51,11.30
2014,10,10,06,52,11.40
2014,10,10,06,53,11.40
2014,10,10,06,54,11.40
2014,10,10,06,55,11.40
2014,10,10,06,56,11.30
2014,10,10,06,57,11.30
2014,10,10,06,58,11.30
2014,10,10,06,59,11.30
2014,10,10,07,00,11.30
2014,10,10,07,01,11.30
2014,10,10,07,02,11.20
2014,10,10,07,03,11.10
2014,10,10,07,04,11.10
2014,10,10,07,05,11.00
2014,10,10,07,06,10.90
2014,10,10,07,07,10.90
2014,10,10,07,08,10.80
2014,10,10,07,09,10.80
2014,10,10,07,10,10.70
2014,10,10,07,11,10.60
2014,10,10,07,12,10.60
2014,10,10,07,13,10.50
2014,10,10,07,14,10.40
2014,10,10,07,15,10.30
2014,10,10,07,16,10.20
2014,10,10,07,17,10.10
2014,10,10,07,18,10.10
2014,10,10,07,19,10.00
2014,10,10,07,20,9.90
2014,10,10,07,21,9.90
2014,10,10,07,22,9.90
2014,10,10,07,23,9.80
2014,10,10,07,24,9.70
2014,10,10,07,25,9.70
2014,10,10,07,26,9.70
2014,10,10,07,27,9.70
2014,10,10,07,28,9.60
2014,10,10,07,29,9.60
2014,10,10,07,30,9.60
2014,10,10,07,31,9.60
2014,10,10,07,32,9.60
2014,10,10,07,33,9.50
2014,10,10,07,34,9.50
2014,10,10,07,35,9.50
2014,10,10,07,36,9.50
2014,10,10,07,37,9.50
2014,10,10,07,38,9.50
2014,10,10,07,39,9.50
2014,10,10,07,40,9.50
2014,10,10,07,41,9.50
2014,10,10,07,42,9.40
2014,10,10,07,43,9.40
2014,10,10,07,44,9.40
2014,10,10,07,45,9.40
2014,10,10,07,46,9.40
2014,10,10,07,47,9.40
2014,10,10,07,48,9.40
2014,10,10,07,49,9.40
2014,10,10,07,50,9.40
2014,10,10,07,51,9.40
2014,10,10,07,52,9.50
2014,10,10,07,53,9.50
2014,10,10,07,54,9.50
2014,10,10,07,55,9.50
2014,10,10,07,56,9.50
2014,10,10,07,57,9.50
2014,10,10,07,58,9.50
2014,10,10,07,59,9.60
2014,10,10,08,00,9.60
2014,10,10,08,01,9.60
2014,10,10,08,02,9.70
2014,10,10,08,03,9.70
2014,10,10,08,04,9.80
2014,10,10,08,05,9.80
2014,10,10,08,06,9.90
2014,10,10,08,07,10.00
2014,10,10,08,08,10.10
2014,10,10,08,09,10.10
2014,10,10,08,10,10.10
2014,10,10,08,11,10.10
2014,10,10,08,12,10.10
2014,10,10,08,13,10.10
2014,10,10,08,14,10.30
2014,10,10,08,15,10.40
2014,10,10,08,16,10.50
2014,10,10,08,17,10.60
2014,10,10,08,18,10.70
2014,10,10,08,19,10.90
2014,10,10,08,20,11.00
2014,10,10,08,21,11.10
2014,10,10,08,22,11.30
2014,10,10,08,23,11.40
2014,10,10,08,24,11.40
2014,10,10,08,25,11.40
2014,10,10,08,26,11.40
2014,10,10,08,27,11.40
2014,10,10,08,28,11.40
2014,10,10,08,29,11.40
2014,10,10,08,30,11.40
2014,10,10,08,31,11.50
2014,10,10,08,32,11.60
2014,10,10,08,33,11.60
2014,10,10,08,34,11.60
2014,10,10,08,35,11.60
2014,10,10,08,36,11.60
2014,10,10,08,37,11.60
2014,10,10,08,38,11.60
2014,10,10,08,39,11.60
2014,10,10,08,40,11.60
2014,10,10,08,41,11.60
2014,10,10,08,42,11.60
2014,10,10,08,43,11.60
2014,10,10,08,44,11.60
2014,10,10,08,45,11.60
2014,10,10,08,46,11.60
2014,10,10,08,47,11.60
2014,10,10,08,48,11.60
2014,10,10,08,49,11.60
2014,10,10,08,50,11.60
2014,10,10,08,51,11.60
2014,10,10,08,52,11.70
2014,10,10,08,53,11.70
2014,10,10,08,54,11.70
2014,10,10,08,55,11.70
2014,10,10,08,56,11.70
2014,10,10,08,57,11.70
2014,10,10,08,58,11.70
2014,10,10,08,59,11.80
2014,10,10,09,00,11.80
2014,10,10,09,01,11.80
2014,10,10,09,02,11.80
2014,10,10,09,03,11.80
2014,10,10,09,04,11.80
2014,10,10,09,05,11.80
2014,10,10,09,06,11.80
2014,10,10,09,07,11.80
2014,10,10,09,08,11.80
2014,10,10,09,09,11.80
2014,10,10,09,10,11.80
2014,10,10,09,11,11.70
2014,10,10,09,12,11.70
2014,10,10,09,13,11.60
2014,10,10,09,14,11.60
2014,10,10,09,15,11.60
2014,10,10,09,16,11.60
2014,10,10,09,17,11.60
2014,10,10,09,18,11.60
2014,10,10,09,19,11.60
2014,10,10,09,20,11.60
2014,10,10,09,21,11.50
2014,10,10,09,22,11.40
2014,10,10,09,23,11.40
2014,10,10,09,24,11.40
2014,10,10,09,25,11.40
2014,10,10,09,26,11.40
2014,10,10,09,27,11.40
2014,10,10,09,28,11.40
2014,10,10,09,29,11.40
2014,10,10,09,30,11.40
2014,10,10,09,31,11.30
2014,10,10,09,32,11.30
2014,10,10,09,33,11.30
2014,10,10,09,34,11.30
2014,10,10,09,35,11.30
2014,10,10,09,36,11.20
2014,10,10,09,37,11.20
2014,10,10,09,38,11.20
2014,10,10,09,39,11.20
2014,10,10,09,40,11.20
2014,10,10,09,41,11.10
2014,10,10,09,42,11.20
2014,10,10,09,43,11.10
2014,10,10,09,44,11.10
2014,10,10,09,45,11.10
2014,10,10,09,46,11.10
2014,10,10,09,47,11.20
2014,10,10,09,48,11.20
2014,10,10,09,49,11.20
2014,10,10,09,50,11.20
2014,10,10,09,51,11.30
2014,10,10,09,52,11.30
2014,10,10,09,53,11.40
2014,10,10,09,54,11.40
2014,10,10,09,55,11.40
2014,10,10,09,56,11.40
2014,10,10,09,57,11.30
2014,10,10,09,58,11.30
2014,10,10,09,59,11.40
2014,10,10,10,00,11.40
2014,10,10,10,01,11.50
2014,10,10,10,02,11.60
2014,10,10,10,03,11.60
2014,10,10,10,04,11.70
2014,10,10,10,05,11.70
2014,10,10,10,06,11.80
2014,10,10,10,07,11.80
2014,10,10,10,08,11.80
2014,10,10,10,09,11.90
2014,10,10,10,10,12.00
2014,10,10,10,11,12.10
2014,10,10,10,12,12.20
2014,10,10,10,13,12.20
2014,10,10,10,14,12.30
2014,10,10,10,15,12.50
2014,10,10,10,16,12.60
2014,10,10,10,17,12.60
2014,10,10,10,18,12.70
2014,10,10,10,19,12.90
2014,10,10,10,20,13.00
2014,10,10,10,21,13.20
2014,10,10,10,22,13.30
2014,10,10,10,23,13.40
2014,10,10,10,24,13.50
2014,10,10,10,25,13.60
2014,10,10,10,26,13.70
2014,10,10,10,27,13.80
2014,10,10,10,28,13.80
2014,10,10,10,29,14.00
2014,10,10,10,30,14.10
2014,10,10,10,31,14.20
2014,10,10,10,32,14.30
2014,10,10,10,33,14.40
2014,10,10,10,34,14.50
2014,10,10,10,35,14.50
2014,10,10,10,36,14.50
2014,10,10,10,37,14.60
2014,10,10,10,38,14.70
2014,10,10,10,39,14.70
2014,10,10,10,40,14.80
2014,10,10,10,41,14.80
2014,10,10,10,42,15.00
2014,10,10,10,43,15.10
2014,10,10,10,44,15.30
2014,10,10,10,45,15.40
2014,10,10,10,46,15.60
2014,10,10,10,47,15.70
2014,10,10,10,48,15.80
2014,10,10,10,49,15.80
2014,10,10,10,50,15.90
2014,10,10,10,51,16.10
2014,10,10,10,52,16.20
2014,10,10,10,53,16.30
2014,10,10,10,54,16.40
2014,10,10,10,55,16.40
2014,10,10,10,56,16.50
2014,10,10,10,57,16.60
2014,10,10,10,58,16.70
2014,10,10,10,59,16.80
2014,10,10,11,00,16.80
2014,10,10,11,01,16.90
2014,10,10,11,02,17.00
2014,10,10,11,03,17.10
2014,10,10,11,04,17.20
2014,10,10,11,05,17.30
2014,10,10,11,06,17.30
2014,10,10,11,07,17.30
2014,10,10,11,08,17.40
2014,10,10,11,09,17.50
2014,10,10,11,10,17.50
2014,10,10,11,11,17.50
2014,10,10,11,12,17.50
2014,10,10,11,13,17.60
2014,10,10,11,14,17.60
2014,10,10,11,15,17.60
2014,10,10,11,16,17.60
2014,10,10,11,17,17.60
2014,10,10,11,18,17.60
2014,10,10,11,19,17.70
2014,10,10,11,20,17.70
2014,10,10,11,21,17.70
2014,10,10,11,22,17.80
2014,10,10,11,23,17.80
2014,10,10,11,24,17.90
2014,10,10,11,25,17.90
2014,10,10,11,26,17.90
2014,10,10,11,27,17.90
2014,10,10,11,28,17.90
2014,10,10,11,29,17.90
2014,10,10,11,30,18.00
2014,10,10,11,31,18.10
2014,10,10,11,32,18.20
2014,10,10,11,33,18.20
2014,10,10,11,34,18.20
2014,10,10,11,35,18.30
2014,10,10,11,36,18.30
2014,10,10,11,37,18.30
2014,10,10,11,38,18.30
2014,10,10,11,39,18.30
2014,10,10,11,40,18.20
2014,10,10,11,41,18.20
2014,10,10,11,42,18.30
2014,10,10,11,43,18.30
2014,10,10,11,44,18.30
2014,10,10,11,45,18.30
2014,10,10,11,46,18.30
2014,10,10,11,47,18.30
2014,10,10,11,48,18.30
2014,10,10,11,49,18.30
2014,10,10,11,50,18.30
2014,10,10,11,51,18.40
2014,10,10,11,52,18.40
2014,10,10,11,53,18.40
2014,10,10,11,54,18.50
2014,10,10,11,55,18.50
2014,10,10,11,56,18.50
2014,10,10,11,57,18.60
2014,10,10,11,58,18.60
2014,10,10,11,59,18.60
2014,10,10,12,00,18.60
2014,10,10,12,01,18.70
2014,10,10,12,02,18.60
2014,10,10,12,03,18.60
2014,10,10,12,04,18.60
2014,10,10,12,05,18.60
2014,10,10,12,06,18.60
2014,10,10,12,07,18.60
2014,10,10,12,08,18.60
2014,10,10,12,09,18.60
2014,10,10,12,10,18.60
2014,10,10,12,11,18.60
2014,10,10,12,12,18.60
2014,10,10,12,13,18.60
2014,10,10,12,14,18.60
2014,10,10,12,15,18.60
2014,10,10,12,16,18.60
2014,10,10,12,17,18.60
2014,10,10,12,18,18.60
2014,10,10,12,19,18.60
2014,10,10,12,20,18.60
2014,10,10,12,21,18.60
2014,10,10,12,22,18.50
2014,10,10,12,23,18.50
2014,10,10,12,24,18.40
2014,10,10,12,25,18.40
2014,10,10,12,26,18.50
2014,10,10,12,27,18.50
2014,10,10,12,28,18.50
2014,10,10,12,29,18.50
2014,10,10,12,30,18.50
2014,10,10,12,31,18.60
2014,10,10,12,32,18.60
2014,10,10,12,33,18.50
2014,10,10,12,34,18.50
2014,10,10,12,35,18.50
2014,10,10,12,36,18.50
2014,10,10,12,37,18.50
2014,10,10,12,38,18.50
2014,10,10,12,39,18.50
2014,10,10,12,40,18.40
2014,10,10,12,41,18.40
2014,10,10,12,42,18.40
2014,10,10,12,43,18.40
2014,10,10,12,44,18.40
2014,10,10,12,45,18.40
2014,10,10,12,46,18.30
2014,10,10,12,47,18.30
2014,10,10,12,48,18.30
2014,10,10,12,49,18.30
2014,10,10,12,50,18.40
2014,10,10,12,51,18.40
2014,10,10,12,52,18.50
2014,10,10,12,53,18.50
2014,10,10,12,54,18.50
2014,10,10,12,55,18.60
2014,10,10,12,56,18.60
2014,10,10,12,57,18.60
2014,10,10,12,58,18.60
2014,10,10,12,59,18.70
2014,10,10,13,00,18.70
2014,10,10,13,01,18.70
2014,10,10,13,02,18.60
2014,10,10,13,03,18.70
2014,10,10,13,04,18.60
2014,10,10,13,05,18.60
2014,10,10,13,06,18.70
2014,10,10,13,07,18.70
2014,10,10,13,08,18.70
2014,10,10,13,09,18.70
2014,10,10,13,10,18.70
2014,10,10,13,11,18.70
2014,10,10,13,12,18.60
2014,10,10,13,13,18.60
2014,10,10,13,14,18.50
2014,10,10,13,15,18.50
2014,10,10,13,16,18.40
2014,10,10,13,17,18.30
2014,10,10,13,18,18.20
2014,10,10,13,19,18.20
2014,10,10,13,20,18.20
2014,10,10,13,21,18.20
2014,10,10,13,22,18.10
2014,10,10,13,23,18.00
2014,10,10,13,24,17.90
2014,10,10,13,25,17.90
2014,10,10,13,26,17.90
2014,10,10,13,27,17.80
2014,10,10,13,28,17.80
2014,10,10,13,29,17.70
2014,10,10,13,30,17.70
2014,10,10,13,31,17.60
2014,10,10,13,32,17.60
2014,10,10,13,33,17.50
2014,10,10,13,34,17.50
2014,10,10,13,35,17.40
2014,10,10,13,36,17.40
2014,10,10,13,37,17.30
2014,10,10,13,38,17.30
2014,10,10,13,39,17.30
2014,10,10,13,40,17.30
2014,10,10,13,41,17.30
2014,10,10,13,42,17.20
2014,10,10,13,43,17.20
2014,10,10,13,44,17.20
2014,10,10,13,45,17.20
2014,10,10,13,46,17.20
2014,10,10,13,47,17.20
2014,10,10,13,48,17.20
2014,10,10,13,49,17.10
2014,10,10,13,50,17.10
2014,10,10,13,51,17.00
2014,10,10,13,52,17.00
2014,10,10,13,53,17.00
2014,10,10,13,54,16.90
2014,10,10,13,55,16.90
2014,10,10,13,56,16.90
2014,10,10,13,57,16.80
2014,10,10,13,58,16.80
2014,10,10,13,59,16.80
2014,10,10,14,00,16.80
2014,10,10,14,01,16.80
2014,10,10,14,02,16.80
2014,10,10,14,03,16.80
2014,10,10,14,04,16.80
2014,10,10,14,05,16.80
2014,10,10,14,06,16.80
2014,10,10,14,07,16.90
2014,10,10,14,08,17.00
2014,10,10,14,09,17.10
2014,10,10,14,10,17.20
2014,10,10,14,11,17.20
2014,10,10,14,12,17.30
2014,10,10,14,13,17.30
2014,10,10,14,14,17.40
2014,10,10,14,15,17.40
2014,10,10,14,16,17.50
2014,10,10,14,17,17.50
2014,10,10,14,18,17.50
2014,10,10,14,19,17.60
2014,10,10,14,20,17.60
2014,10,10,14,21,17.50
2014,10,10,14,22,17.50
2014,10,10,14,23,17.60
2014,10,10,14,24,17.60
2014,10,10,14,25,17.60
2014,10,10,14,26,17.60
2014,10,10,14,27,17.60
2014,10,10,14,28,17.60
2014,10,10,14,29,17.60
2014,10,10,14,30,17.70
2014,10,10,14,31,17.70
2014,10,10,14,32,17.70
2014,10,10,14,33,17.70
2014,10,10,14,34,17.70
2014,10,10,14,35,17.80
2014,10,10,14,36,17.80
2014,10,10,14,37,17.80
2014,10,10,14,38,17.80
2014,10,10,14,39,17.80
2014,10,10,14,40,17.80
2014,10,10,14,41,17.80
2014,10,10,14,42,17.80
2014,10,10,14,43,17.80
2014,10,10,14,44,17.80
2014,10,10,14,45,17.80
2014,10,10,14,46,17.80
2014,10,10,14,47,17.80
2014,10,10,14,48,17.80
2014,10,10,14,49,17.70
2014,10,10,14,50,17.70
2014,10,10,14,51,17.70
2014,10,10,14,52,17.70
2014,10,10,14,53,17.80
2014,10,10,14,54,17.80
2014,10,10,14,55,17.70
2014,10,10,14,56,17.70
2014,10,10,14,57,17.70
2014,10,10,14,58,17.70
2014,10,10,14,59,17.70
2014,10,10,15,00,17.60
2014,10,10,15,01,17.60
2014,10,10,15,02,17.60
2014,10,10,15,03,17.60
2014,10,10,15,04,17.60
2014,10,10,15,05,17.60
2014,10,10,15,06,17.60
2014,10,10,15,07,17.60
2014,10,10,15,08,17.50
2014,10,10,15,09,17.50
2014,10,10,15,10,17.50
2014,10,10,15,11,17.50
2014,10,10,15,12,17.50
2014,10,10,15,13,17.40
2014,10,10,15,14,17.40
2014,10,10,15,15,17.40
2014,10,10,15,16,17.40
2014,10,10,15,17,17.40
2014,10,10,15,18,17.40
2014,10,10,15,19,17.30
2014,10,10,15,20,17.30
2014,10,10,15,21,17.30
2014,10,10,15,22,17.30
2014,10,10,15,23,17.40
2014,10,10,15,24,17.40
2014,10,10,15,25,17.40
2014,10,10,15,26,17.40
2014,10,10,15,27,17.30
2014,10,10,15,28,17.30
2014,10,10,15,29,17.30
2014,10,10,15,30,17.40
2014,10,10,15,31,17.40
2014,10,10,15,32,17.40
2014,10,10,15,33,17.40
2014,10,10,15,34,17.40
2014,10,10,15,35,17.40
2014,10,10,15,36,17.40
2014,10,10,15,37,17.40
2014,10,10,15,38,17.40
2014,10,10,15,39,17.40
2014,10,10,15,40,17.40
2014,10,10,15,41,17.40
2014,10,10,15,42,17.40
2014,10,10,15,43,17.40
2014,10,10,15,44,17.40
2014,10,10,15,45,17.40
2014,10,10,15,46,17.40
2014,10,10,15,47,17.40
2014,10,10,15,48,17.40
2014,10,10,15,49,17.40
2014,10,10,15,50,17.40
2014,10,10,15,51,17.40
2014,10,10,15,52,17.40
2014,10,10,15,53,17.40
2014,10,10,15,54,17.40
2014,10,10,15,55,17.40
2014,10,10,15,56,17.50
2014,10,10,15,57,17.50
2014,10,10,15,58,17.50
2014,10,10,15,59,17.50
2014,10,10,16,00,17.50
2014,10,10,16,01,17.50
2014,10,10,16,02,17.50
2014,10,10,16,03,17.50
2014,10,10,16,04,17.40
2014,10,10,16,05,17.40
2014,10,10,16,06,17.40
2014,10,10,16,07,17.40
2014,10,10,16,08,17.40
2014,10,10,16,09,17.40
2014,10,10,16,10,17.40
2014,10,10,16,11,17.40
2014,10,10,16,12,17.40
2014,10,10,16,13,17.40
2014,10,10,16,14,17.40
2014,10,10,16,15,17.30
2014,10,10,16,16,17.30
2014,10,10,16,17,17.30
2014,10,10,16,18,17.30
2014,10,10,16,19,17.30
2014,10,10,16,20,17.30
2014,10,10,16,21,17.30
2014,10,10,16,22,17.30
2014,10,10,16,23,17.30
2014,10,10,16,24,17.20
2014,10,10,16,25,17.20
2014,10,10,16,26,17.20
2014,10,10,16,27,17.20
2014,10,10,16,28,17.10
2014,10,10,16,29,17.10
2014,10,10,16,30,17.00
2014,10,10,16,31,17.00
2014,10,10,16,32,16.90
2014,10,10,16,33,16.90
2014,10,10,16,34,16.90
2014,10,10,16,35,16.80
2014,10,10,16,36,16.80
2014,10,10,16,37,16.80
2014,10,10,16,38,16.70
2014,10,10,16,39,16.70
2014,10,10,16,40,16.70
2014,10,10,16,41,16.70
2014,10,10,16,42,16.70
2014,10,10,16,43,16.70
2014,10,10,16,44,16.70
2014,10,10,16,45,16.70
2014,10,10,16,46,16.70
2014,10,10,16,47,16.70
2014,10,10,16,48,16.70
2014,10,10,16,49,16.70
2014,10,10,16,50,16.70
2014,10,10,16,51,16.70
2014,10,10,16,52,16.70
2014,10,10,16,53,16.70
2014,10,10,16,54,16.60
2014,10,10,16,55,16.60
2014,10,10,16,56,16.60
2014,10,10,16,57,16.60
2014,10,10,16,58,16.60
2014,10,10,16,59,16.50
2014,10,10,17,00,16.40
2014,10,10,17,01,16.40
2014,10,10,17,02,16.40
2014,10,10,17,03,16.30
2014,10,10,17,04,16.20
2014,10,10,17,05,16.20
2014,10,10,17,06,16.10
2014,10,10,17,07,16.10
2014,10,10,17,08,16.00
2014,10,10,17,09,15.90
2014,10,10,17,10,15.90
2014,10,10,17,11,15.80
2014,10,10,17,12,15.80
2014,10,10,17,13,15.80
2014,10,10,17,14,15.80
2014,10,10,17,15,15.70
2014,10,10,17,16,15.70
2014,10,10,17,17,15.60
2014,10,10,17,18,15.60
2014,10,10,17,19,15.50
2014,10,10,17,20,15.50
2014,10,10,17,21,15.50
2014,10,10,17,22,15.40
2014,10,10,17,23,15.40
2014,10,10,17,24,15.30
2014,10,10,17,25,15.30